This is the latest recevied weather packets stored in our database for station/object NL3D. If no packets are shown the sender has not sent any weather packets the latest 1 day(s).
| Time | Temp. | Humidity | Pressure | Rain* | Wind** | Luminosity | Snow |
|---|---|---|---|---|---|---|---|
| 1778054810 | 6.11° C | 56% | 1009.7 hPa | 0 mm | 0.89 m/s, 148° | 0 W/m² | - |
| 1778054506 | 6.67° C | 57% | 1009.4 hPa | 0 mm | 0 m/s | 0 W/m² | - |
| 1778054204 | 6.67° C | 57% | 1009.3 hPa | 0 mm | 0 m/s | 0 W/m² | - |
| 1778053900 | 6.67° C | 57% | 1009.4 hPa | 0 mm | 0.89 m/s, 141° | 0 W/m² | - |
| 1778053598 | 6.67° C | 57% | 1009.5 hPa | 0 mm | 2.24 m/s, 124° | 0 W/m² | - |
| 1778053295 | 6.67° C | 57% | 1009.5 hPa | 0 mm | 1.79 m/s, 32° | 0 W/m² | - |
| 1778052993 | 6.67° C | 56% | 1009.1 hPa | 0 mm | 0.89 m/s, 107° | 0 W/m² | - |
| 1778052690 | 6.67° C | 56% | 1009.3 hPa | 0 mm | 0.89 m/s, 83° | 0 W/m² | - |
| 1778052386 | 6.67° C | 56% | 1009.3 hPa | 0 mm | 1.34 m/s, 24° | 0 W/m² | - |
| 1778052085 | 6.67° C | 55% | 1009.1 hPa | 0 mm | 0.89 m/s, 63° | 0 W/m² | - |
| 1778051782 | 6.67° C | 55% | 1009.3 hPa | 0 mm | 1.34 m/s, 40° | 0 W/m² | - |
| 1778051479 | 6.67° C | 56% | 1009.2 hPa | 0 mm | 2.24 m/s, 174° | 0 W/m² | - |
| 1778051176 | 6.67° C | 55% | 1009.1 hPa | 0 mm | 1.34 m/s, 76° | 0 W/m² | - |
| 1778050874 | 6.67° C | 54% | 1009.2 hPa | 0 mm | 1.34 m/s, 196° | 0 W/m² | - |
| 1778050572 | 6.67° C | 55% | 1009 hPa | 0 mm | 1.34 m/s, 123° | 0 W/m² | - |
| 1778050268 | 6.67° C | 55% | 1009.1 hPa | 0 mm | 0.89 m/s, 110° | 0 W/m² | - |
| 1778049965 | 6.67° C | 56% | 1009.1 hPa | 0 mm | 0.89 m/s, 148° | 0 W/m² | - |
| 1778049660 | 6.67° C | 55% | 1009 hPa | 0 mm | 0.89 m/s, 155° | 0 W/m² | - |
| 1778049359 | 7.22° C | 55% | 1009 hPa | 0 mm | 0.89 m/s, 178° | 1 W/m² | - |
| 1778049055 | 7.22° C | 55% | 1008.8 hPa | 0 mm | 0.89 m/s, 17° | 1 W/m² | - |
| 1778048754 | 7.22° C | 55% | 1008.9 hPa | 0 mm | 0.89 m/s, 279° | 2 W/m² | - |
| 1778048450 | 7.22° C | 55% | 1008.8 hPa | 0 mm | 1.34 m/s, 79° | 2 W/m² | - |
| 1778048146 | 7.22° C | 55% | 1008.6 hPa | 0 mm | 1.34 m/s, 99° | 3 W/m² | - |
| 1778047844 | 7.22° C | 55% | 1008.4 hPa | 0 mm | 1.79 m/s, 167° | 4 W/m² | - |
| 1778047543 | 7.22° C | 55% | 1008.5 hPa | 0 mm | 1.34 m/s, 180° | 5 W/m² | - |
* Rain latest hour (hover to see other rain measurements)
** Current wind speed in m/s (hover to see current wind gust speed)